This is the latest recevied weather packets stored in our database for station/object DB0NU-15. If no packets are shown the sender has not sent any weather packets the latest 10 day(s).
| Time | Temp. | Humidity | Pressure | Rain* | Wind** | Luminosity | Snow |
|---|---|---|---|---|---|---|---|
| 1777811426 | 23.89° C | 35% | 1015.1 hPa | 0 mm | - | - | - |
| 1777810823 | 23.33° C | 36% | 1015.2 hPa | 0 mm | - | - | - |
| 1777810219 | 23.89° C | 35% | 1015.2 hPa | 0 mm | - | - | - |
| 1777809617 | 23.89° C | 34% | 1015.3 hPa | 0 mm | - | - | - |
| 1777807866 | 22.78° C | 35% | 1015.7 hPa | 0 mm | - | - | - |
| 1777806659 | 23.33° C | 35% | 1015.8 hPa | 0 mm | - | - | - |
| 1777805453 | 22.78° C | 35% | 1016 hPa | 0 mm | - | - | - |
| 1777804849 | 22.22° C | 37% | 1016 hPa | 0 mm | - | - | - |
| 1777803642 | 22.78° C | 33% | 1016.2 hPa | 0 mm | - | - | - |
| 1777803039 | 23.33° C | 32% | 1016.3 hPa | 0 mm | - | - | - |
| 1777802436 | 22.78° C | 35% | 1016.4 hPa | 0 mm | - | - | - |
| 1777801832 | 21.67° C | 39% | 1016.7 hPa | 0 mm | - | - | - |
| 1777800625 | 21.11° C | 44% | 1016.7 hPa | 0 mm | - | - | - |
| 1777799419 | 19.44° C | 51% | 1017 hPa | 0 mm | - | - | - |
| 1777798271 | 17.22° C | 53% | 1017.1 hPa | 0 mm | - | - | - |
| 1777797668 | 17.22° C | 53% | 1017.1 hPa | 0 mm | - | - | - |
| 1777797064 | 17.78° C | 50% | 1016.8 hPa | 0 mm | - | - | - |
| 1777795858 | 17.22° C | 51% | 1016.8 hPa | 0 mm | - | - | - |
| 1777795254 | 16.67° C | 49% | 1016.7 hPa | 0 mm | - | - | - |
| 1777794651 | 17.22° C | 48% | 1016.8 hPa | 0 mm | - | - | - |
| 1777794047 | 16.67° C | 48% | 1016.8 hPa | 0 mm | - | - | - |
| 1777793444 | 16.67° C | 45% | 1016.8 hPa | 0 mm | - | - | - |
| 1777792841 | 16.67° C | 44% | 1016.8 hPa | 0 mm | - | - | - |
| 1777792238 | 16.67° C | 45% | 1016.6 hPa | 0 mm | - | - | - |
| 1777791634 | 16.67° C | 44% | 1016.6 hPa | 0 mm | - | - | - |
* Rain latest hour (hover to see other rain measurements)
** Current wind speed in m/s (hover to see current wind gust speed)